Groton, CT

8:03 AM EDT on August 27, 2016 (GMT -0400)
Groton-New London

Weather History for KGON - October, 2011

Change the Weather History Date:

Monday, October 3, 2011

  Actual Average Record
Temperature  
Mean Temperature 58 °F -  
Max Temperature 64 °F 67 °F 78 °F (1983)
Min Temperature 53 °F 48 °F 33 °F (1975)
Degree Days  
Heating Degree Days 7    
Growing Degree Days 8 (Base 50)    
Moisture  
Dew Point 52 °F    
Average Humidity 87    
Maximum Humidity 100    
Minimum Humidity 50    
Precipitation  
Precipitation 0.00 in - - ()
Sea Level Pressure  
Sea Level Pressure 30.00 in    
Wind  
Wind Speed 4 mph (NNE)    
Max Wind Speed 13 mph    
Max Gust Speed 18 mph    
Visibility 8 miles    
Events Rain    
Averages and records for this station are not official NWS values.
T = Trace of Precipitation, MM = Missing Value Source: NWS Daily Summary

Daily Weather History Graph

Daily Weather History Graph

Search for Another Location

Airport or City:

Trip Planner

Search our weather history database for the weather conditions in past years. The results will help you decide how hot, cold, wet, or windy it might be!

Date:

Astronomy

Oct. 03, 2011 Rise Set
Actual Time 6:46 AM EDT 6:27 PM EDT
Civil Twilight 6:19 AM EDT 6:54 PM EDT
Nautical Twilight 5:47 AM EDT 7:26 PM EDT
Astronomical Twilight 5:14 AM EDT 7:58 PM EDT
Moon 1:45 PM EDT (10/3) 11:23 PM EDT (10/3)
Length of Visible Light 12h 35m
Length of Day
11h 40m
Waxing Crescent, 45% of the Moon is Illuminated
Oct 3
Waxing Crescent
Oct 3
First Quarter
Oct 11
Full
Oct 19
Last Quarter
Oct 26
New

Hourly Weather History & Observations

Time (EDT) Temp. Dew Point Humidity Pressure Visibility Wind Dir Wind Speed Gust Speed Precip Events Conditions
12:56 AM 55.9 °F 53.1 °F 90% 29.91 in 6.0 mi Calm Calm - N/A Rain Rain
1:19 AM 57.2 °F 55.4 °F 94% 29.93 in 10.0 mi WSW 5.8 mph - N/A Rain Light Rain
1:48 AM 55.4 °F 53.6 °F 94% 29.93 in 10.0 mi NNW 4.6 mph - N/A   Mostly Cloudy
1:56 AM 55.9 °F 54.0 °F 93% 29.92 in 10.0 mi NNW 6.9 mph - N/A   Scattered Clouds
2:44 AM 57.2 °F 55.4 °F 94% 29.93 in 10.0 mi Calm Calm - N/A   Overcast
2:56 AM 55.0 °F 54.0 °F 96% 29.93 in 10.0 mi NNW 4.6 mph - N/A   Mostly Cloudy
3:56 AM 54.0 °F 53.1 °F 97% 29.94 in 10.0 mi NNE 3.5 mph - N/A   Clear
4:48 AM 53.6 °F 53.6 °F 100% 29.96 in 10.0 mi Calm Calm - N/A   Overcast
4:56 AM 54.0 °F 53.1 °F 97% 29.96 in 10.0 mi WNW 3.5 mph - N/A   Mostly Cloudy
5:14 AM 53.6 °F 51.8 °F 94% 29.97 in 10.0 mi Calm Calm - N/A   Scattered Clouds
5:56 AM 54.0 °F 53.1 °F 97% 29.99 in 10.0 mi Calm Calm - N/A   Mostly Cloudy
6:56 AM 54.0 °F 53.1 °F 97% 30.00 in 10.0 mi NE 6.9 mph - N/A   Overcast
7:56 AM 55.0 °F 54.0 °F 96% 30.02 in 10.0 mi Calm Calm - N/A   Overcast
8:56 AM 57.9 °F 54.0 °F 87% 30.05 in 10.0 mi North 3.5 mph - N/A   Overcast
9:56 AM 55.9 °F 52.0 °F 87% 30.06 in 10.0 mi NW 8.1 mph - N/A Rain Light Rain
10:56 AM 57.2 °F 51.8 °F 82% 30.07 in 10.0 mi NNW 4.6 mph - N/A   Overcast
11:56 AM 62.1 °F 51.1 °F 67% 30.06 in 10.0 mi Calm Calm - N/A   Mostly Cloudy
12:56 PM 60.8 °F 46.4 °F 59% 30.05 in 10.0 mi Calm Calm - N/A   Overcast
1:56 PM 61.0 °F 46.9 °F 60% 30.04 in 10.0 mi SSE 4.6 mph - N/A   Overcast
2:56 PM 60.1 °F 48.0 °F 64% 30.05 in 10.0 mi South 3.5 mph - N/A   Overcast
3:56 PM 63.0 °F 44.1 °F 50% 30.03 in 10.0 mi Calm Calm - N/A   Scattered Clouds
4:56 PM 62.1 °F 46.9 °F 58% 30.02 in 10.0 mi ESE 5.8 mph - N/A   Mostly Cloudy
5:56 PM 61.0 °F 48.9 °F 64% 30.02 in 10.0 mi ENE 4.6 mph - N/A   Overcast
6:56 PM 57.9 °F 52.0 °F 81% 30.04 in 4.0 mi East 6.9 mph - 0.00 in Rain Rain
7:56 PM 55.9 °F 52.0 °F 87% 30.04 in 7.0 mi ENE 8.1 mph - 0.00 in Rain Light Rain
8:56 PM 55.0 °F 53.1 °F 93% 30.02 in 5.0 mi North 9.2 mph - N/A Rain Heavy Rain
9:05 PM 55.4 °F 53.6 °F 94% 30.02 in 8.0 mi NNW 11.5 mph - N/A Rain Light Rain
9:31 PM 55.4 °F 53.6 °F 94% 30.01 in 4.0 mi North 12.7 mph - N/A Rain Heavy Rain
9:42 PM 55.4 °F 53.6 °F 94% 30.00 in 5.0 mi Variable 5.8 mph 18.4 mph N/A Rain Rain
9:56 PM 55.9 °F 53.1 °F 90% 30.02 in 4.0 mi NNE 6.9 mph - N/A Rain Light Rain
10:32 PM 55.4 °F 53.6 °F 94% 30.01 in 5.0 mi NE 6.9 mph - N/A Rain Light Rain
10:56 PM 55.0 °F 54.0 °F 96% 30.00 in 3.0 mi NNE 10.4 mph - N/A Rain Rain
11:07 PM 55.4 °F 53.6 °F 94% 30.00 in 4.0 mi NE 11.5 mph - N/A Rain Rain
11:17 PM 55.4 °F 53.6 °F 94% 30.00 in 8.0 mi NE 11.5 mph - N/A Rain Light Rain
11:25 PM 55.4 °F 53.6 °F 94% 30.00 in 8.0 mi NE 12.7 mph - N/A Rain Light Rain
11:56 PM 55.9 °F 54.0 °F 93% 30.00 in 10.0 mi ENE 5.8 mph - N/A   Overcast